LHA2541 EDDP-LCPH

Flight info

Callsign LHA2541
Flight time 3h 26m
Altitude 31000
Route DRN Z21 OMELO DCT EVIKU DCT ODNEM DCT XOMBA DCT KEROP DCT NISVA N131 RODIP UN131 KULAR UT39 TOMBI DCT DASNI DCT TOBAL
Aircraft A319/M-SDE1E2FGIRWYZ/S

Departure

Time 2026-04-23 06:18
Airport Leipzig/Halle Airport (EDDP)

Arrival

Time 2026-04-23 09:44
Airport Paphos International Airport (LCPH)
Time Latitude Longitude Altitude Speed Heading
2026-04-23 06:06 51.42732 12.23994 469 ft 0 kts 266°
2026-04-23 06:08 51.42733 12.24023 469 ft 3 kts 266°
2026-04-23 06:08 51.42735 12.24066 469 ft 3 kts 266°
2026-04-23 06:09 51.42733 12.24106 469 ft 3 kts 296°
2026-04-23 06:09 51.42714 12.24129 469 ft 3 kts 349°
2026-04-23 06:09 51.42711 12.24130 469 ft 0 kts 353°
2026-04-23 06:12 51.42717 12.24129 469 ft 1 kts 354°
2026-04-23 06:12 51.42735 12.24126 469 ft 3 kts 355°
2026-04-23 06:12 51.42832 12.24116 469 ft 9 kts 356°
2026-04-23 06:13 51.42905 12.24119 469 ft 11 kts 17°
2026-04-23 06:13 51.42938 12.24231 469 ft 12 kts 84°
2026-04-23 06:13 51.42945 12.24378 469 ft 14 kts 85°
2026-04-23 06:13 51.42953 12.24558 469 ft 18 kts 86°
2026-04-23 06:14 51.42963 12.24779 469 ft 21 kts 85°
2026-04-23 06:14 51.42975 12.25035 469 ft 24 kts 86°
2026-04-23 06:14 51.42987 12.25314 469 ft 25 kts 86°
2026-04-23 06:14 51.43001 12.25594 469 ft 24 kts 85°
2026-04-23 06:15 51.43016 12.25867 469 ft 24 kts 85°
2026-04-23 06:15 51.43029 12.26139 469 ft 24 kts 85°
2026-04-23 06:15 51.43042 12.26407 469 ft 24 kts 85°
2026-04-23 06:15 51.43055 12.26667 469 ft 18 kts 84°
2026-04-23 06:16 51.43120 12.26767 469 ft 15 kts 353°
2026-04-23 06:16 51.43201 12.26748 469 ft 10 kts 350°
2026-04-23 06:16 51.43257 12.26729 469 ft 1 kts 345°
2026-04-23 06:16 51.43274 12.26722 469 ft 3 kts 342°
2026-04-23 06:17 51.43281 12.26718 469 ft 1 kts 340°
2026-04-23 06:17 51.43294 12.26711 469 ft 2 kts 340°
2026-04-23 06:17 51.43317 12.26697 469 ft 4 kts 340°
2026-04-23 06:17 51.43348 12.26656 469 ft 11 kts 291°
2026-04-23 06:18 51.43334 12.26129 469 ft 91 kts 264°
2026-04-23 06:18 51.43270 12.24720 544 ft 155 kts 266°
2026-04-23 06:18 51.43206 12.23035 1464 ft 151 kts 264°
2026-04-23 06:18 51.43123 12.21433 2402 ft 147 kts 263°
2026-04-23 06:19 51.43036 12.19755 3040 ft 164 kts 263°
2026-04-23 06:19 51.42937 12.17847 3707 ft 184 kts 263°
2026-04-23 06:19 51.42827 12.15692 4413 ft 204 kts 263°
2026-04-23 06:19 51.42704 12.13277 4861 ft 236 kts 263°
2026-04-23 06:20 51.42567 12.10578 4988 ft 248 kts 263°
2026-04-23 06:20 51.42430 12.07805 4991 ft 249 kts 263°
2026-04-23 06:20 51.42295 12.05050 4993 ft 249 kts 263°
2026-04-23 06:20 51.42160 12.02305 4994 ft 249 kts 263°
2026-04-23 06:21 51.42020 11.99490 5208 ft 257 kts 263°
2026-04-23 06:21 51.41725 11.96669 6201 ft 259 kts 248°
2026-04-23 06:21 51.40797 11.94355 7426 ft 254 kts 224°
2026-04-23 06:21 51.39363 11.92743 8509 ft 256 kts 211°
2026-04-23 06:22 51.37835 11.91320 9538 ft 259 kts 210°
2026-04-23 06:22 51.36288 11.89901 10549 ft 262 kts 210°
2026-04-23 06:22 51.34697 11.88438 11318 ft 274 kts 210°
2026-04-23 06:22 51.32999 11.86876 11856 ft 293 kts 209°
2026-04-23 06:23 51.31192 11.85211 12410 ft 309 kts 209°
2026-04-23 06:23 51.29295 11.83580 13262 ft 314 kts 202°
2026-04-23 06:23 51.27172 11.82858 14201 ft 318 kts 184°
2026-04-23 06:23 51.24984 11.83343 15079 ft 328 kts 167°
2026-04-23 06:24 51.22950 11.85073 15873 ft 344 kts 147°
2026-04-23 06:24 51.21254 11.87894 16644 ft 356 kts 137°
2026-04-23 06:24 51.19687 11.90928 17341 ft 363 kts 136°
2026-04-23 06:24 51.18077 11.94091 18009 ft 369 kts 136°
2026-04-23 06:25 51.16456 11.97261 18649 ft 375 kts 137°
2026-04-23 06:25 51.14791 12.00493 19251 ft 382 kts 137°
2026-04-23 06:25 51.13108 12.03745 19845 ft 388 kts 137°
2026-04-23 06:25 51.11369 12.07090 20438 ft 394 kts 137°
2026-04-23 06:26 51.09621 12.10445 21008 ft 399 kts 137°
2026-04-23 06:26 51.07841 12.13854 21561 ft 405 kts 137°
2026-04-23 06:26 51.06036 12.17306 22103 ft 411 kts 137°
2026-04-23 06:26 51.04218 12.20786 22772 ft 413 kts 138°
2026-04-23 06:27 51.02511 12.24573 23316 ft 429 kts 125°
2026-04-23 06:27 51.01445 12.29055 23745 ft 450 kts 106°
2026-04-23 06:27 51.01167 12.34056 24224 ft 461 kts 92°
2026-04-23 06:27 51.01217 12.39140 24725 ft 467 kts 89°
2026-04-23 06:28 51.01328 12.44331 25205 ft 472 kts 89°
2026-04-23 06:28 51.01425 12.49547 25677 ft 477 kts 89°
2026-04-23 06:28 51.01496 12.54814 26143 ft 482 kts 89°
2026-04-23 06:28 51.01543 12.60159 26602 ft 487 kts 89°
2026-04-23 06:29 51.01575 12.65553 27050 ft 492 kts 90°
2026-04-23 06:29 51.01597 12.71017 27473 ft 496 kts 90°
2026-04-23 06:29 51.01612 12.76529 27897 ft 500 kts 90°
2026-04-23 06:29 51.01624 12.82077 28310 ft 505 kts 89°
2026-04-23 06:30 51.01635 12.87639 28771 ft 507 kts 89°
2026-04-23 06:30 51.01642 12.93193 29337 ft 507 kts 89°
2026-04-23 06:30 51.01647 12.98783 29884 ft 507 kts 88°
2026-04-23 06:30 51.01646 13.04356 30407 ft 507 kts 87°
2026-04-23 06:31 51.01640 13.09911 30999 ft 501 kts 85°
2026-04-23 06:31 51.01637 13.15402 31285 ft 499 kts 84°
2026-04-23 06:31 51.01639 13.26336 31293 ft 495 kts 84°
2026-04-23 06:32 51.01636 13.37281 31282 ft 508 kts 84°
2026-04-23 06:32 51.01628 13.42975 31278 ft 521 kts 84°
2026-04-23 06:32 51.01593 13.48767 31275 ft 533 kts 87°
2026-04-23 06:33 51.00368 13.60544 31272 ft 546 kts 104°
2026-04-23 06:33 50.97188 13.71475 31271 ft 548 kts 122°
2026-04-23 06:34 50.92979 13.81448 31271 ft 548 kts 127°
2026-04-23 06:34 50.88321 13.90965 31269 ft 547 kts 129°
2026-04-23 06:35 50.83482 14.00188 31270 ft 547 kts 134°
2026-04-23 06:35 50.78207 14.08308 31271 ft 545 kts 140°
2026-04-23 06:36 50.72606 14.16293 31270 ft 545 kts 140°
2026-04-23 06:36 50.66996 14.24300 31270 ft 545 kts 140°
2026-04-23 06:37 50.61419 14.32286 31270 ft 545 kts 140°
2026-04-23 06:37 50.55811 14.40302 31270 ft 546 kts 140°
2026-04-23 06:38 50.50200 14.48290 31270 ft 546 kts 140°
2026-04-23 06:38 50.44730 14.56424 31270 ft 547 kts 134°
2026-04-23 06:39 50.39591 14.65195 31271 ft 547 kts 134°
2026-04-23 06:39 50.34478 14.74011 31270 ft 547 kts 134°
2026-04-23 06:40 50.29369 14.82747 31270 ft 547 kts 134°
2026-04-23 06:40 50.24221 14.91495 31270 ft 547 kts 134°
2026-04-23 06:41 50.19060 15.00226 31270 ft 549 kts 134°
2026-04-23 06:41 50.13890 15.08944 31270 ft 551 kts 133°
2026-04-23 06:42 50.08688 15.17694 31270 ft 552 kts 133°
2026-04-23 06:42 50.03505 15.26383 31266 ft 552 kts 133°
2026-04-23 06:43 49.98246 15.35169 31259 ft 552 kts 133°
2026-04-23 06:43 49.93027 15.43855 31251 ft 552 kts 133°
2026-04-23 06:44 49.87788 15.52546 31243 ft 551 kts 133°
2026-04-23 06:44 49.82549 15.61204 31242 ft 551 kts 133°
2026-04-23 06:45 49.77307 15.69842 31241 ft 551 kts 134°
2026-04-23 06:45 49.72046 15.78470 31242 ft 552 kts 134°
2026-04-23 06:46 49.66783 15.87079 31243 ft 552 kts 134°
2026-04-23 06:46 49.61517 15.95668 31240 ft 552 kts 134°
2026-04-23 06:47 49.56228 16.04261 31233 ft 552 kts 134°
2026-04-23 06:47 49.50947 16.12819 31224 ft 552 kts 134°
2026-04-23 06:48 49.45681 16.21317 31219 ft 552 kts 134°
2026-04-23 06:48 49.40377 16.29849 31217 ft 552 kts 134°
2026-04-23 06:49 49.35061 16.38374 31216 ft 552 kts 134°
2026-04-23 06:49 49.29757 16.46851 31217 ft 552 kts 134°
2026-04-23 06:50 49.24460 16.55288 31216 ft 552 kts 134°
2026-04-23 06:50 49.19138 16.63738 31217 ft 552 kts 134°
2026-04-23 06:51 49.13778 16.72222 31215 ft 552 kts 135°
2026-04-23 06:51 49.08425 16.80654 31216 ft 552 kts 134°
2026-04-23 06:52 49.03121 16.88973 31219 ft 546 kts 133°
2026-04-23 06:52 48.97868 16.97210 31219 ft 537 kts 133°
2026-04-23 06:53 48.92703 17.05295 31218 ft 530 kts 133°
2026-04-23 06:53 48.87444 17.13055 31208 ft 528 kts 139°
2026-04-23 06:54 48.81606 17.19752 31201 ft 528 kts 147°
2026-04-23 06:54 48.75243 17.25303 31195 ft 527 kts 153°
2026-04-23 06:55 48.68817 17.30553 31191 ft 527 kts 153°
2026-04-23 06:55 48.62403 17.35822 31189 ft 527 kts 152°
2026-04-23 06:56 48.55966 17.41129 31189 ft 527 kts 152°
2026-04-23 06:56 48.50030 17.46020 31191 ft 527 kts 152°
2026-04-23 06:57 48.43599 17.51305 31193 ft 527 kts 152°
2026-04-23 06:57 48.37150 17.56586 31195 ft 527 kts 152°
2026-04-23 06:58 48.30694 17.61861 31199 ft 527 kts 152°
2026-04-23 06:58 48.24282 17.67086 31200 ft 527 kts 153°
2026-04-23 06:59 48.17807 17.72343 31199 ft 527 kts 153°
2026-04-23 06:59 48.11393 17.77533 31195 ft 527 kts 153°
2026-04-23 07:00 48.04944 17.82741 31196 ft 527 kts 153°
2026-04-23 07:00 47.98508 17.87924 31202 ft 527 kts 153°
2026-04-23 07:01 47.92077 17.93086 31209 ft 527 kts 153°
2026-04-23 07:01 47.85583 17.98284 31211 ft 527 kts 153°
2026-04-23 07:02 47.79148 18.03422 31213 ft 527 kts 153°
2026-04-23 07:02 47.72865 18.09150 31214 ft 528 kts 145°
2026-04-23 07:03 47.66939 18.15525 31214 ft 528 kts 143°
2026-04-23 07:03 47.61139 18.21804 31214 ft 528 kts 144°
2026-04-23 07:04 47.55170 18.28214 31214 ft 528 kts 144°
2026-04-23 07:04 47.49238 18.34549 31214 ft 528 kts 144°
2026-04-23 07:05 47.43296 18.40870 31214 ft 528 kts 144°
2026-04-23 07:05 47.37318 18.47211 31214 ft 528 kts 144°
2026-04-23 07:06 47.31323 18.53551 31211 ft 528 kts 144°
2026-04-23 07:06 47.25393 18.59807 31192 ft 529 kts 144°
2026-04-23 07:07 47.19400 18.66112 31166 ft 528 kts 145°
2026-04-23 07:07 47.13377 18.72429 31148 ft 528 kts 145°
2026-04-23 07:08 47.07357 18.78722 31139 ft 528 kts 145°
2026-04-23 07:08 47.01353 18.84980 31135 ft 529 kts 144°
2026-04-23 07:09 46.95318 18.91237 31134 ft 530 kts 143°
2026-04-23 07:09 46.89294 18.97472 31132 ft 529 kts 142°
2026-04-23 07:10 46.83306 19.03675 31136 ft 521 kts 142°
2026-04-23 07:10 46.77429 19.09754 31137 ft 513 kts 142°
2026-04-23 07:11 46.71603 19.15755 31137 ft 505 kts 142°
2026-04-23 07:12 46.62960 19.24614 31134 ft 497 kts 142°
2026-04-23 07:12 46.57279 19.30414 31134 ft 497 kts 142°
2026-04-23 07:13 46.51617 19.36183 31133 ft 497 kts 142°
2026-04-23 07:13 46.45951 19.41941 31133 ft 497 kts 142°
2026-04-23 07:14 46.40234 19.47737 31133 ft 497 kts 142°
2026-04-23 07:14 46.34503 19.53530 31134 ft 497 kts 142°
2026-04-23 07:15 46.28822 19.59257 31134 ft 497 kts 142°
2026-04-23 07:15 46.23112 19.64997 31134 ft 497 kts 142°
2026-04-23 07:16 46.17423 19.70714 31133 ft 497 kts 143°
2026-04-23 07:16 46.11897 19.76409 31133 ft 497 kts 142°
2026-04-23 07:17 46.06267 19.82230 31133 ft 497 kts 142°
2026-04-23 07:17 46.00617 19.88048 31134 ft 497 kts 142°
2026-04-23 07:18 45.94929 19.93881 31135 ft 497 kts 142°
2026-04-23 07:18 45.89232 19.99706 31134 ft 497 kts 142°
2026-04-23 07:19 45.83575 20.05475 31140 ft 497 kts 142°
2026-04-23 07:19 45.77933 20.11213 31148 ft 497 kts 142°
2026-04-23 07:20 45.72254 20.16974 31155 ft 497 kts 142°
2026-04-23 07:20 45.66492 20.22805 31158 ft 496 kts 142°
2026-04-23 07:21 45.60833 20.28518 31159 ft 496 kts 142°
2026-04-23 07:21 45.55109 20.34281 31160 ft 496 kts 142°
2026-04-23 07:22 45.49394 20.40020 31160 ft 496 kts 142°
2026-04-23 07:22 45.43722 20.45702 31160 ft 496 kts 142°
2026-04-23 07:23 45.38111 20.51309 31160 ft 496 kts 142°
2026-04-23 07:23 45.32407 20.56995 31160 ft 496 kts 142°
2026-04-23 07:24 45.26741 20.62628 31160 ft 496 kts 142°
2026-04-23 07:24 45.21017 20.68306 31160 ft 497 kts 143°
2026-04-23 07:25 45.15292 20.73970 31160 ft 497 kts 143°
2026-04-23 07:25 45.09639 20.79548 31160 ft 497 kts 143°
2026-04-23 07:26 45.03911 20.85185 31161 ft 496 kts 143°
2026-04-23 07:26 44.98246 20.90751 31162 ft 494 kts 143°
2026-04-23 07:27 44.92612 20.96282 31162 ft 492 kts 144°
2026-04-23 07:27 44.86992 21.01777 31162 ft 489 kts 145°
2026-04-23 07:28 44.81393 21.07234 31163 ft 485 kts 145°
2026-04-23 07:28 44.75793 21.12677 31163 ft 481 kts 146°
2026-04-23 07:29 44.70292 21.18008 31161 ft 479 kts 146°
2026-04-23 07:29 44.64717 21.23400 31160 ft 479 kts 146°
2026-04-23 07:30 44.59238 21.28690 31161 ft 479 kts 146°
2026-04-23 07:30 44.53732 21.33991 31160 ft 479 kts 146°
2026-04-23 07:31 44.48191 21.39316 31161 ft 479 kts 146°
2026-04-23 07:31 44.42662 21.44617 31161 ft 479 kts 146°
2026-04-23 07:32 44.37144 21.49897 31162 ft 480 kts 146°
2026-04-23 07:32 44.31630 21.55160 31160 ft 479 kts 146°
2026-04-23 07:33 44.26122 21.60405 31160 ft 480 kts 146°
2026-04-23 07:33 44.20557 21.65692 31161 ft 480 kts 146°
2026-04-23 07:34 44.15042 21.70919 31160 ft 480 kts 146°
2026-04-23 07:34 44.09439 21.76217 31160 ft 480 kts 146°
2026-04-23 07:35 44.03834 21.81505 31162 ft 480 kts 146°
2026-04-23 07:35 43.98333 21.86684 31160 ft 480 kts 146°
2026-04-23 07:36 43.92736 21.91940 31161 ft 480 kts 146°
2026-04-23 07:36 43.87194 21.97131 31160 ft 480 kts 146°
2026-04-23 07:37 43.81591 22.02369 31160 ft 479 kts 146°
2026-04-23 07:37 43.76028 22.07558 31161 ft 480 kts 146°
2026-04-23 07:38 43.70431 22.12767 31161 ft 480 kts 146°
2026-04-23 07:38 43.64904 22.17897 31161 ft 480 kts 146°
2026-04-23 07:39 43.59344 22.23046 31160 ft 480 kts 146°
2026-04-23 07:39 43.53803 22.28166 31161 ft 479 kts 146°
2026-04-23 07:40 43.48246 22.33292 31161 ft 479 kts 146°
2026-04-23 07:40 43.42665 22.38429 31161 ft 480 kts 146°
2026-04-23 07:41 43.37113 22.43526 31160 ft 480 kts 146°
2026-04-23 07:41 43.31519 22.48648 31161 ft 480 kts 146°
2026-04-23 07:42 43.25929 22.53758 31161 ft 480 kts 146°
2026-04-23 07:42 43.20316 22.58874 31160 ft 479 kts 146°
2026-04-23 07:43 43.14732 22.63952 31156 ft 480 kts 146°
2026-04-23 07:43 43.09132 22.69033 31147 ft 480 kts 147°
2026-04-23 07:44 43.03518 22.74115 31134 ft 480 kts 147°
2026-04-23 07:44 42.98019 22.79324 31124 ft 480 kts 143°
2026-04-23 07:45 42.93064 22.85119 31115 ft 482 kts 137°
2026-04-23 07:45 42.88160 22.91438 31113 ft 478 kts 139°
2026-04-23 07:46 42.83345 22.97609 31109 ft 472 kts 140°
2026-04-23 07:46 42.78544 23.03721 31107 ft 471 kts 140°
2026-04-23 07:47 42.73734 23.09827 31107 ft 469 kts 140°
2026-04-23 07:47 42.68951 23.15891 31106 ft 469 kts 140°
2026-04-23 07:48 42.64188 23.21917 31106 ft 469 kts 140°
2026-04-23 07:48 42.59337 23.28044 31106 ft 470 kts 140°
2026-04-23 07:49 42.54549 23.34078 31106 ft 469 kts 140°
2026-04-23 07:49 42.49731 23.40136 31106 ft 469 kts 140°
2026-04-23 07:50 42.44983 23.46093 31107 ft 469 kts 140°
2026-04-23 07:50 42.40179 23.52105 31106 ft 469 kts 140°
2026-04-23 07:51 42.35387 23.58092 31106 ft 469 kts 140°
2026-04-23 07:51 42.30583 23.64078 31106 ft 469 kts 140°
2026-04-23 07:52 42.25784 23.69970 31106 ft 468 kts 141°
2026-04-23 07:52 42.20916 23.75887 31106 ft 468 kts 141°
2026-04-23 07:53 42.16069 23.81768 31106 ft 468 kts 141°
2026-04-23 07:53 42.11209 23.87658 31106 ft 469 kts 141°
2026-04-23 07:54 42.06335 23.93550 31107 ft 468 kts 141°
2026-04-23 07:54 42.01502 23.99379 31107 ft 468 kts 141°
2026-04-23 07:55 41.96611 24.05274 31105 ft 469 kts 141°
2026-04-23 07:55 41.91742 24.11133 31106 ft 469 kts 141°
2026-04-23 07:56 41.86832 24.17021 31107 ft 468 kts 141°
2026-04-23 07:56 41.81976 24.22834 31107 ft 469 kts 141°
2026-04-23 07:57 41.77099 24.28659 31106 ft 469 kts 141°
2026-04-23 07:57 41.72210 24.34490 31106 ft 468 kts 141°
2026-04-23 07:58 41.67331 24.40291 31106 ft 468 kts 141°
2026-04-23 07:58 41.62399 24.46144 31106 ft 468 kts 141°
2026-04-23 07:59 41.57532 24.51906 31106 ft 468 kts 141°
2026-04-23 07:59 41.52632 24.57697 31103 ft 468 kts 141°
2026-04-23 08:00 41.48101 24.63038 31097 ft 468 kts 141°
2026-04-23 08:00 41.43243 24.68757 31091 ft 468 kts 142°
2026-04-23 08:01 41.38390 24.74491 31082 ft 468 kts 142°
2026-04-23 08:01 41.33536 24.80247 31080 ft 468 kts 142°
2026-04-23 08:02 41.28678 24.85993 31080 ft 468 kts 142°
2026-04-23 08:02 41.23816 24.91728 31078 ft 468 kts 142°
2026-04-23 08:03 41.18957 24.97443 31077 ft 468 kts 142°
2026-04-23 08:03 41.14037 25.03200 31072 ft 478 kts 140°
2026-04-23 08:04 41.09016 25.09084 31077 ft 485 kts 140°
2026-04-23 08:04 41.04074 25.14901 31083 ft 470 kts 141°
2026-04-23 08:05 40.99127 25.20661 31079 ft 469 kts 141°
2026-04-23 08:05 40.94253 25.26328 31079 ft 471 kts 141°
2026-04-23 08:06 40.89345 25.32031 31079 ft 471 kts 141°
2026-04-23 08:06 40.84439 25.37722 31079 ft 471 kts 141°
2026-04-23 08:07 40.79591 25.43521 31078 ft 472 kts 137°
2026-04-23 08:07 40.75131 25.49950 31079 ft 474 kts 133°
2026-04-23 08:08 40.70850 25.56540 31079 ft 474 kts 133°
2026-04-23 08:08 40.66547 25.63144 31078 ft 474 kts 133°
2026-04-23 08:09 40.62241 25.69728 31078 ft 474 kts 133°
2026-04-23 08:09 40.57948 25.76271 31079 ft 473 kts 133°
2026-04-23 08:10 40.53642 25.82818 31079 ft 473 kts 133°
2026-04-23 08:10 40.47164 25.92614 31079 ft 473 kts 134°
2026-04-23 08:11 40.42818 25.99110 31079 ft 473 kts 134°
2026-04-23 08:11 40.38486 26.05572 31079 ft 473 kts 134°
2026-04-23 08:12 40.34129 26.12059 31079 ft 473 kts 134°
2026-04-23 08:12 40.29797 26.18496 31079 ft 473 kts 134°
2026-04-23 08:13 40.25431 26.24970 31079 ft 473 kts 134°
2026-04-23 08:13 40.21046 26.31458 31079 ft 473 kts 134°
2026-04-23 08:14 40.16656 26.37937 31079 ft 473 kts 134°
2026-04-23 08:14 40.12209 26.44262 31079 ft 472 kts 137°
2026-04-23 08:15 40.07525 26.50302 31079 ft 472 kts 138°
2026-04-23 08:15 40.02831 26.56321 31079 ft 472 kts 138°
2026-04-23 08:16 39.98133 26.62338 31079 ft 472 kts 138°
2026-04-23 08:16 39.93435 26.68346 31078 ft 471 kts 138°
2026-04-23 08:17 39.88741 26.74337 31072 ft 471 kts 138°
2026-04-23 08:17 39.84038 26.80327 31062 ft 471 kts 138°
2026-04-23 08:18 39.79341 26.86295 31054 ft 472 kts 138°
2026-04-23 08:18 39.74602 26.92258 31053 ft 471 kts 139°
2026-04-23 08:19 39.69855 26.98079 31053 ft 468 kts 140°
2026-04-23 08:19 39.65096 27.03899 31053 ft 466 kts 140°
2026-04-23 08:20 39.60394 27.09646 31053 ft 464 kts 140°
2026-04-23 08:20 39.55696 27.15378 31053 ft 462 kts 140°
2026-04-23 08:21 39.51049 27.21114 31052 ft 463 kts 137°
2026-04-23 08:21 39.46726 27.27395 31053 ft 465 kts 132°
2026-04-23 08:22 39.42598 27.33873 31052 ft 465 kts 132°
2026-04-23 08:22 39.38493 27.40301 31052 ft 465 kts 132°
2026-04-23 08:23 39.34362 27.46752 31052 ft 465 kts 132°
2026-04-23 08:23 39.30219 27.53208 31053 ft 465 kts 132°
2026-04-23 08:24 39.26055 27.59678 31053 ft 465 kts 132°
2026-04-23 08:24 39.21914 27.66102 31052 ft 465 kts 133°
2026-04-23 08:25 39.17762 27.72526 31052 ft 465 kts 133°
2026-04-23 08:25 39.13618 27.78924 31052 ft 465 kts 133°
2026-04-23 08:26 39.09448 27.85350 31052 ft 465 kts 133°
2026-04-23 08:26 39.05326 27.91695 31052 ft 465 kts 133°
2026-04-23 08:27 39.01166 27.98087 31052 ft 466 kts 133°
2026-04-23 08:27 38.96983 28.04499 31051 ft 468 kts 133°
2026-04-23 08:28 38.92753 28.10967 31051 ft 471 kts 133°
2026-04-23 08:28 38.88511 28.17441 31052 ft 474 kts 133°
2026-04-23 08:29 38.84242 28.23943 31052 ft 476 kts 133°
2026-04-23 08:29 38.79954 28.30462 31052 ft 476 kts 133°
2026-04-23 08:30 38.75677 28.36950 31052 ft 476 kts 133°
2026-04-23 08:30 38.71391 28.43437 31052 ft 476 kts 133°
2026-04-23 08:31 38.67093 28.49928 31046 ft 476 kts 133°
2026-04-23 08:31 38.62799 28.56396 31029 ft 476 kts 133°
2026-04-23 08:32 38.58246 28.62462 31004 ft 473 kts 140°
2026-04-23 08:32 38.53175 28.67824 30975 ft 471 kts 147°
2026-04-23 08:33 38.47873 28.72584 30957 ft 470 kts 148°
2026-04-23 08:33 38.42464 28.77400 30948 ft 470 kts 148°
2026-04-23 08:34 38.37088 28.82192 30944 ft 470 kts 148°
2026-04-23 08:34 38.31725 28.86972 30942 ft 468 kts 148°
2026-04-23 08:35 38.26410 28.91701 30938 ft 466 kts 149°
2026-04-23 08:35 38.21131 28.96388 30933 ft 463 kts 149°
2026-04-23 08:36 38.15881 29.01041 30927 ft 460 kts 149°
2026-04-23 08:36 38.10679 29.05642 30921 ft 457 kts 149°
2026-04-23 08:37 38.05453 29.10256 30917 ft 457 kts 149°
2026-04-23 08:37 38.00252 29.14839 30915 ft 456 kts 149°
2026-04-23 08:38 37.95058 29.19410 30915 ft 456 kts 149°
2026-04-23 08:38 37.89860 29.23976 30915 ft 457 kts 149°
2026-04-23 08:39 37.84631 29.28561 30915 ft 456 kts 149°
2026-04-23 08:39 37.79449 29.33100 30915 ft 457 kts 149°
2026-04-23 08:40 37.74225 29.37669 30914 ft 456 kts 149°
2026-04-23 08:40 37.69046 29.42191 30914 ft 456 kts 149°
2026-04-23 08:41 37.63820 29.46745 30914 ft 456 kts 149°
2026-04-23 08:41 37.58616 29.51271 30915 ft 456 kts 149°
2026-04-23 08:42 37.54253 29.55060 30915 ft 456 kts 149°
2026-04-23 08:42 37.48179 29.60325 30914 ft 456 kts 149°
2026-04-23 08:43 37.42961 29.64840 30914 ft 457 kts 149°
2026-04-23 08:43 37.37759 29.69332 30914 ft 456 kts 149°
2026-04-23 08:44 37.32538 29.73837 30914 ft 456 kts 149°
2026-04-23 08:44 37.27343 29.78317 30914 ft 456 kts 149°
2026-04-23 08:45 37.22095 29.82835 30914 ft 456 kts 149°
2026-04-23 08:45 37.16901 29.87296 30914 ft 456 kts 149°
2026-04-23 08:46 37.11657 29.91793 30914 ft 456 kts 149°
2026-04-23 08:46 37.06423 29.96278 30916 ft 457 kts 149°
2026-04-23 08:47 37.01210 30.00740 30925 ft 459 kts 149°
2026-04-23 08:47 36.95944 30.05242 30941 ft 460 kts 148°
2026-04-23 08:48 36.90682 30.09734 30956 ft 460 kts 148°
2026-04-23 08:48 36.85379 30.14252 30964 ft 460 kts 148°
2026-04-23 08:49 36.80128 30.18713 30967 ft 460 kts 148°
2026-04-23 08:49 36.74844 30.23191 30967 ft 460 kts 148°
2026-04-23 08:50 36.70425 30.26929 30967 ft 460 kts 148°
2026-04-23 08:50 36.64277 30.32122 30968 ft 460 kts 148°
2026-04-23 08:51 36.59003 30.36569 30968 ft 460 kts 148°
2026-04-23 08:51 36.53729 30.41007 30968 ft 460 kts 148°
2026-04-23 08:52 36.48444 30.45448 30968 ft 460 kts 148°
2026-04-23 08:52 36.43150 30.49889 30968 ft 460 kts 148°
2026-04-23 08:53 36.37862 30.54317 30968 ft 460 kts 148°
2026-04-23 08:53 36.32576 30.58736 30966 ft 457 kts 148°
2026-04-23 08:54 36.29964 30.60920 30781 ft 444 kts 148°
2026-04-23 08:54 36.27468 30.63006 30532 ft 432 kts 149°
2026-04-23 08:54 36.24976 30.65085 30281 ft 428 kts 149°
2026-04-23 08:54 36.22533 30.67118 30031 ft 425 kts 149°
2026-04-23 08:55 36.20076 30.69161 29779 ft 424 kts 149°
2026-04-23 08:55 36.17642 30.71183 29530 ft 424 kts 149°
2026-04-23 08:55 36.15207 30.73205 29281 ft 424 kts 149°
2026-04-23 08:55 36.12777 30.75221 29032 ft 425 kts 149°
2026-04-23 08:56 36.10317 30.77262 28781 ft 425 kts 149°
2026-04-23 08:56 36.07856 30.79301 28529 ft 426 kts 149°
2026-04-23 08:56 36.05316 30.81071 28277 ft 423 kts 159°
2026-04-23 08:56 36.02547 30.82240 28025 ft 419 kts 169°
2026-04-23 08:57 35.99708 30.82759 27777 ft 415 kts 178°
2026-04-23 08:57 35.97768 30.82907 27609 ft 413 kts 180°
2026-04-23 08:57 35.93993 30.83113 27278 ft 411 kts 180°
2026-04-23 08:57 35.91125 30.83262 27026 ft 410 kts 180°
2026-04-23 08:58 35.89242 30.83365 26861 ft 409 kts 180°
2026-04-23 08:58 35.86404 30.83526 26610 ft 408 kts 180°
2026-04-23 08:58 35.83597 30.83689 26361 ft 406 kts 180°
2026-04-23 08:58 35.80768 30.83857 26110 ft 405 kts 180°
2026-04-23 08:59 35.77988 30.84024 25861 ft 404 kts 180°
2026-04-23 08:59 35.74256 30.84248 25527 ft 402 kts 180°
2026-04-23 08:59 35.71501 30.84414 25279 ft 400 kts 180°
2026-04-23 08:59 35.68732 30.84580 25029 ft 399 kts 180°
2026-04-23 09:00 35.66881 30.84692 24862 ft 398 kts 180°
2026-04-23 09:00 35.63261 30.85451 24513 ft 403 kts 161°
2026-04-23 09:00 35.61590 30.86519 24343 ft 407 kts 149°
2026-04-23 09:00 35.59539 30.88897 24093 ft 412 kts 130°
2026-04-23 09:01 35.57415 30.92756 23770 ft 412 kts 125°
2026-04-23 09:01 35.56371 30.94756 23601 ft 411 kts 125°
2026-04-23 09:01 35.54336 30.98656 23270 ft 409 kts 125°
2026-04-23 09:01 35.52793 31.01585 23019 ft 407 kts 125°
2026-04-23 09:02 35.51755 31.03542 22851 ft 406 kts 125°
2026-04-23 09:02 35.50222 31.06421 22602 ft 404 kts 126°
2026-04-23 09:02 35.48700 31.09266 22355 ft 402 kts 125°
2026-04-23 09:02 35.47165 31.12129 22104 ft 400 kts 125°
2026-04-23 09:03 35.45134 31.15909 21772 ft 398 kts 125°
2026-04-23 09:03 35.44112 31.17810 21603 ft 397 kts 125°
2026-04-23 09:03 35.42099 31.21547 21271 ft 394 kts 125°
2026-04-23 09:03 35.40588 31.24349 21021 ft 393 kts 125°
2026-04-23 09:04 35.39087 31.27132 20771 ft 391 kts 125°
2026-04-23 09:04 35.38105 31.28952 20607 ft 390 kts 125°
2026-04-23 09:04 35.36119 31.32627 20274 ft 389 kts 125°
2026-04-23 09:04 35.34625 31.35389 20023 ft 387 kts 125°
2026-04-23 09:05 35.33144 31.38124 19774 ft 386 kts 125°
2026-04-23 09:05 35.31655 31.40874 19522 ft 384 kts 125°
2026-04-23 09:05 35.30185 31.43585 19273 ft 383 kts 125°
2026-04-23 09:05 35.28730 31.46266 19025 ft 381 kts 125°
2026-04-23 09:06 35.27746 31.48077 18857 ft 380 kts 125°
2026-04-23 09:06 35.25811 31.51638 18526 ft 379 kts 125°
2026-04-23 09:06 35.24353 31.54321 18275 ft 377 kts 125°
2026-04-23 09:06 35.23395 31.56080 18110 ft 376 kts 125°
2026-04-23 09:07 35.21466 31.59622 17777 ft 374 kts 125°
2026-04-23 09:07 35.20497 31.61400 17609 ft 373 kts 125°
2026-04-23 09:07 35.18589 31.64898 17277 ft 372 kts 125°
2026-04-23 09:07 35.17165 31.67506 17027 ft 370 kts 125°
2026-04-23 09:08 35.15732 31.70127 16776 ft 369 kts 125°
2026-04-23 09:08 35.14796 31.71839 16611 ft 368 kts 125°
2026-04-23 09:08 35.12912 31.75283 16278 ft 366 kts 125°
2026-04-23 09:08 35.11494 31.77872 16027 ft 365 kts 125°
2026-04-23 09:09 35.10104 31.80407 15780 ft 363 kts 125°
2026-04-23 09:09 35.08696 31.82975 15529 ft 362 kts 125°
2026-04-23 09:09 35.07293 31.85531 15277 ft 360 kts 125°
2026-04-23 09:09 35.05911 31.88048 15029 ft 359 kts 125°
2026-04-23 09:10 35.04986 31.89730 14862 ft 358 kts 125°
2026-04-23 09:10 35.01761 31.95592 14278 ft 356 kts 125°
2026-04-23 09:10 35.00383 31.98093 14028 ft 355 kts 125°
2026-04-23 09:11 34.99019 32.00565 13779 ft 354 kts 125°
2026-04-23 09:11 34.97640 32.03063 13528 ft 353 kts 125°
2026-04-23 09:11 34.96273 32.05537 13271 ft 353 kts 125°
2026-04-23 09:11 34.94900 32.08022 12986 ft 352 kts 125°
2026-04-23 09:12 34.93547 32.10471 12654 ft 350 kts 124°
2026-04-23 09:12 34.92126 32.12872 12221 ft 348 kts 128°
2026-04-23 09:12 34.90622 32.15114 11755 ft 345 kts 130°
2026-04-23 09:12 34.89075 32.17353 11257 ft 342 kts 131°
2026-04-23 09:13 34.87550 32.19554 10756 ft 339 kts 131°
2026-04-23 09:13 34.86066 32.21697 10440 ft 328 kts 130°
2026-04-23 09:13 34.85096 32.23100 10320 ft 319 kts 130°
2026-04-23 09:13 34.83246 32.25778 10089 ft 302 kts 131°
2026-04-23 09:14 34.81916 32.27703 9846 ft 294 kts 130°
2026-04-23 09:14 34.80611 32.29590 9448 ft 293 kts 131°
2026-04-23 09:14 34.79312 32.31469 9059 ft 291 kts 130°
2026-04-23 09:14 34.78444 32.32724 8804 ft 290 kts 130°
2026-04-23 09:15 34.76729 32.35204 8300 ft 287 kts 131°
2026-04-23 09:15 34.75869 32.36447 8049 ft 286 kts 130°
2026-04-23 09:15 34.74152 32.38926 7547 ft 283 kts 131°
2026-04-23 09:15 34.73314 32.40137 7301 ft 282 kts 131°
2026-04-23 09:16 34.72058 32.41947 6932 ft 280 kts 131°
2026-04-23 09:16 34.70384 32.44361 6441 ft 278 kts 131°
2026-04-23 09:16 34.69154 32.46130 6099 ft 278 kts 131°
2026-04-23 09:16 34.67899 32.47938 5995 ft 281 kts 130°
2026-04-23 09:17 34.66639 32.49750 5994 ft 282 kts 131°
2026-04-23 09:17 34.65376 32.51566 5993 ft 282 kts 131°
2026-04-23 09:17 34.64526 32.52787 5994 ft 282 kts 131°
2026-04-23 09:17 34.62850 32.55197 5993 ft 282 kts 131°
2026-04-23 09:18 34.61596 32.57000 5990 ft 270 kts 131°
2026-04-23 09:18 34.60810 32.58131 5990 ft 259 kts 131°
2026-04-23 09:18 34.59309 32.60285 5991 ft 248 kts 131°
2026-04-23 09:18 34.58395 32.62044 5986 ft 250 kts 110°
2026-04-23 09:19 34.58114 32.64115 5989 ft 250 kts 86°
2026-04-23 09:19 34.58509 32.66120 5986 ft 237 kts 63°
2026-04-23 09:19 34.59417 32.67689 5985 ft 220 kts 42°
2026-04-23 09:19 34.60621 32.68706 5984 ft 205 kts 22°
2026-04-23 09:20 34.61956 32.69169 5988 ft 202 kts
2026-04-23 09:20 34.63350 32.69099 5988 ft 199 kts 345°
2026-04-23 09:20 34.64634 32.68516 5989 ft 196 kts 327°
2026-04-23 09:20 34.65686 32.67509 5989 ft 193 kts 310°
2026-04-23 09:21 34.66434 32.66176 5989 ft 192 kts 294°
2026-04-23 09:21 34.66933 32.64662 5990 ft 191 kts 289°
2026-04-23 09:21 34.67373 32.63155 5991 ft 191 kts 288°
2026-04-23 09:21 34.67818 32.61632 5992 ft 191 kts 289°
2026-04-23 09:22 34.68272 32.60106 5992 ft 191 kts 289°
2026-04-23 09:22 34.68731 32.58584 5993 ft 191 kts 289°
2026-04-23 09:22 34.69196 32.57050 5993 ft 191 kts 289°
2026-04-23 09:22 34.69655 32.55539 5993 ft 191 kts 289°
2026-04-23 09:23 34.70117 32.54019 5993 ft 191 kts 289°
2026-04-23 09:23 34.70577 32.52509 5993 ft 191 kts 289°
2026-04-23 09:23 34.71039 32.50989 5993 ft 191 kts 289°
2026-04-23 09:23 34.71497 32.49481 5993 ft 191 kts 289°
2026-04-23 09:24 34.71950 32.47967 5993 ft 191 kts 289°
2026-04-23 09:24 34.72403 32.46447 5993 ft 191 kts 289°
2026-04-23 09:24 34.72855 32.44926 5993 ft 191 kts 289°
2026-04-23 09:24 34.73157 32.43910 5993 ft 191 kts 289°
2026-04-23 09:25 34.73608 32.42390 5993 ft 191 kts 289°
2026-04-23 09:25 34.74059 32.40873 5993 ft 191 kts 289°
2026-04-23 09:25 34.74665 32.38834 5993 ft 191 kts 289°
2026-04-23 09:25 34.75114 32.37322 5993 ft 191 kts 289°
2026-04-23 09:26 34.75566 32.35802 5993 ft 191 kts 289°
2026-04-23 09:26 34.76017 32.34283 5993 ft 191 kts 289°
2026-04-23 09:26 34.76465 32.32774 5993 ft 191 kts 289°
2026-04-23 09:26 34.76917 32.31248 5993 ft 191 kts 289°
2026-04-23 09:27 34.77372 32.29716 5993 ft 191 kts 289°
2026-04-23 09:27 34.77820 32.28205 5993 ft 191 kts 289°
2026-04-23 09:27 34.78270 32.26686 5993 ft 191 kts 289°
2026-04-23 09:27 34.78722 32.25163 5993 ft 191 kts 289°
2026-04-23 09:28 34.79018 32.24165 5993 ft 191 kts 289°
2026-04-23 09:28 34.79620 32.22135 5993 ft 191 kts 289°
2026-04-23 09:28 34.80069 32.20620 5993 ft 191 kts 289°
2026-04-23 09:28 34.80519 32.19102 5993 ft 191 kts 289°
2026-04-23 09:29 34.80975 32.17566 5993 ft 191 kts 289°
2026-04-23 09:29 34.81425 32.16045 5993 ft 191 kts 289°
2026-04-23 09:29 34.81871 32.14542 5993 ft 191 kts 289°
2026-04-23 09:29 34.82322 32.13018 5993 ft 191 kts 289°
2026-04-23 09:30 34.82774 32.11497 5993 ft 191 kts 289°
2026-04-23 09:30 34.83074 32.10482 5993 ft 191 kts 289°
2026-04-23 09:30 34.83672 32.08466 5993 ft 191 kts 289°
2026-04-23 09:30 34.84127 32.06929 5993 ft 191 kts 289°
2026-04-23 09:31 34.84576 32.05417 5993 ft 192 kts 289°
2026-04-23 09:31 34.84851 32.03757 5992 ft 211 kts 265°
2026-04-23 09:31 34.84378 32.02074 5950 ft 212 kts 241°
2026-04-23 09:31 34.83807 32.01098 5739 ft 215 kts 226°
2026-04-23 09:32 34.82191 31.99637 5311 ft 219 kts 214°
2026-04-23 09:32 34.80824 31.98800 4889 ft 227 kts 198°
2026-04-23 09:32 34.79809 31.98523 4614 ft 231 kts 192°
2026-04-23 09:32 34.78194 31.98550 4181 ft 239 kts 167°
2026-04-23 09:33 34.76091 31.99529 3618 ft 246 kts 158°
2026-04-23 09:33 34.74535 32.00402 3194 ft 249 kts 157°
2026-04-23 09:33 34.72947 32.01310 2765 ft 252 kts 156°
2026-04-23 09:33 34.71910 32.01904 2486 ft 253 kts 156°
2026-04-23 09:34 34.69788 32.03135 1919 ft 255 kts 154°
2026-04-23 09:34 34.68760 32.03862 1665 ft 256 kts 148°
2026-04-23 09:34 34.67635 32.05449 1506 ft 249 kts 108°
2026-04-23 09:34 34.67616 32.07342 1993 ft 209 kts 73°
2026-04-23 09:35 34.68656 32.09207 1883 ft 190 kts 39°
2026-04-23 09:35 34.69514 32.10115 2297 ft 148 kts 40°
2026-04-23 09:35 34.69993 32.10666 2335 ft 133 kts 42°
2026-04-23 09:35 34.70736 32.11696 2192 ft 116 kts 53°
2026-04-23 09:36 34.71130 32.12535 1946 ft 116 kts 66°
2026-04-23 09:36 34.71181 32.13516 1713 ft 119 kts 103°
2026-04-23 09:36 34.71154 32.14501 1597 ft 117 kts 92°
2026-04-23 09:36 34.71079 32.15480 1463 ft 115 kts 95°
2026-04-23 09:37 34.71217 32.16449 1280 ft 119 kts 78°
2026-04-23 09:37 34.71359 32.17451 1127 ft 120 kts 83°
2026-04-23 09:37 34.71451 32.18464 1001 ft 119 kts 83°
2026-04-23 09:37 34.71574 32.19448 896 ft 117 kts 82°
2026-04-23 09:38 34.71684 32.20471 911 ft 126 kts 84°
2026-04-23 09:38 34.71747 32.21189 972 ft 127 kts 85°
2026-04-23 09:38 34.71835 32.22627 1110 ft 129 kts 88°
2026-04-23 09:38 34.71854 32.23739 1286 ft 131 kts 86°
2026-04-23 09:39 34.72011 32.24821 1510 ft 129 kts 76°
2026-04-23 09:39 34.72211 32.25879 1714 ft 129 kts 78°
2026-04-23 09:39 34.72387 32.27002 1750 ft 145 kts 79°
2026-04-23 09:39 34.72612 32.28313 1634 ft 170 kts 77°
2026-04-23 09:40 34.72800 32.29282 1536 ft 176 kts 76°
2026-04-23 09:40 34.73203 32.31102 1351 ft 156 kts 75°
2026-04-23 09:40 34.73443 32.32317 1256 ft 143 kts 77°
2026-04-23 09:40 34.73644 32.33477 1066 ft 141 kts 79°
2026-04-23 09:41 34.73815 32.34652 954 ft 133 kts 82°
2026-04-23 09:41 34.73895 32.35352 949 ft 121 kts 84°
2026-04-23 09:41 34.73988 32.36698 720 ft 122 kts 88°
2026-04-23 09:41 34.74007 32.37721 632 ft 120 kts 91°
2026-04-23 09:42 34.73996 32.38397 594 ft 122 kts 94°
2026-04-23 09:42 34.73933 32.39758 763 ft 122 kts 92°
2026-04-23 09:42 34.73928 32.40487 855 ft 132 kts 92°
2026-04-23 09:42 34.73748 32.41965 1006 ft 133 kts 105°
2026-04-23 09:43 34.73504 32.43099 943 ft 146 kts 107°
2026-04-23 09:43 34.73309 32.43919 952 ft 151 kts 108°
2026-04-23 09:43 34.72911 32.45075 767 ft 149 kts 120°
2026-04-23 09:43 34.72398 32.46610 347 ft 141 kts 116°
2026-04-23 09:44 34.72060 32.47707 108 ft 131 kts 112°
2026-04-23 09:44 34.71760 32.48669 42 ft 108 kts 113°
2026-04-23 09:44 34.71624 32.49105 38 ft 54 kts 106°
2026-04-23 09:44 34.71561 32.49368 38 ft 22 kts 115°
2026-04-23 09:45 34.71472 32.49601 38 ft 23 kts 109°
2026-04-23 09:45 34.71420 32.49711 38 ft 18 kts 122°
2026-04-23 09:45 34.71455 32.49669 38 ft 18 kts 286°
2026-04-23 09:45 34.71518 32.49449 38 ft 31 kts 291°
2026-04-23 09:46 34.71598 32.49186 38 ft 33 kts 290°
2026-04-23 09:46 34.71611 32.49008 38 ft 18 kts 211°
2026-04-23 09:46 34.71500 32.48922 35 ft 21 kts 240°
2026-04-23 09:46 34.71418 32.48715 29 ft 32 kts 244°
2026-04-23 09:47 34.71370 32.48580 29 ft 11 kts 234°
2026-04-23 09:47 34.71327 32.48547 27 ft 7 kts 235°
2026-04-23 09:47 34.71331 32.48499 27 ft 9 kts 289°
2026-04-23 09:47 34.71392 32.48449 29 ft 7 kts 52°
2026-04-23 09:48 34.71394 32.48461 29 ft 0 kts 102°